TimeEDT,TemperatureF,Dew PointF,Humidity,Sea Level PressureIn,VisibilityMPH,Wind Direction,Wind SpeedMPH,Gust SpeedMPH,PrecipitationIn,Events,Conditions,WindDirDegrees,DateUTC
12:53 AM,51.1,45.0,80,29.91,10.0,Calm,Calm,-,N/A,,Overcast,0,2013-09-23 04:53:00
1:53 AM,52.0,43.0,71,29.92,10.0,North,4.6,-,N/A,,Overcast,10,2013-09-23 05:53:00
2:53 AM,50.0,41.0,71,29.92,10.0,Calm,Calm,-,N/A,,Scattered Clouds,0,2013-09-23 06:53:00
3:53 AM,46.9,41.0,80,29.94,10.0,Calm,Calm,-,N/A,,Clear,0,2013-09-23 07:53:00
4:53 AM,46.0,41.0,83,29.95,10.0,Calm,Calm,-,N/A,,Clear,0,2013-09-23 08:53:00
5:53 AM,45.0,41.0,86,29.97,10.0,Calm,Calm,-,N/A,,Clear,0,2013-09-23 09:53:00
6:53 AM,44.1,39.0,82,29.98,10.0,WNW,4.6,-,N/A,,Clear,300,2013-09-23 10:53:00
7:53 AM,48.0,42.1,80,29.99,10.0,Calm,Calm,-,N/A,,Clear,0,2013-09-23 11:53:00
8:53 AM,53.1,39.9,61,29.99,10.0,WNW,9.2,-,N/A,,Clear,300,2013-09-23 12:53:00
9:53 AM,55.0,39.0,55,30.00,10.0,WNW,8.1,-,N/A,,Clear,300,2013-09-23 13:53:00
10:53 AM,57.9,37.9,47,29.99,10.0,NW,5.8,-,N/A,,Clear,320,2013-09-23 14:53:00
11:53 AM,59.0,37.9,46,30.00,10.0,NNW,8.1,-,N/A,,Clear,330,2013-09-23 15:53:00
12:53 PM,61.0,39.0,44,29.99,10.0,NNW,4.6,-,N/A,,Clear,330,2013-09-23 16:53:00
1:53 PM,63.0,39.9,43,29.97,10.0,North,8.1,-,N/A,,Clear,10,2013-09-23 17:53:00
2:53 PM,64.0,42.1,45,29.96,10.0,NNE,8.1,-,N/A,,Clear,30,2013-09-23 18:53:00
3:53 PM,63.0,42.1,46,29.96,10.0,North,6.9,-,N/A,,Clear,360,2013-09-23 19:53:00
4:53 PM,64.0,42.1,45,29.96,10.0,NNW,4.6,-,N/A,,Clear,340,2013-09-23 20:53:00
5:53 PM,62.1,42.1,48,29.97,10.0,North,6.9,-,N/A,,Clear,360,2013-09-23 21:53:00
6:53 PM,57.0,42.1,57,29.99,10.0,Calm,Calm,-,N/A,,Clear,0,2013-09-23 22:53:00
7:53 PM,50.0,45.0,83,30.00,10.0,Calm,Calm,-,N/A,,Clear,0,2013-09-23 23:53:00
8:53 PM,46.9,45.0,93,30.01,10.0,Calm,Calm,-,N/A,,Clear,0,2013-09-24 00:53:00
9:53 PM,46.9,44.1,90,30.03,10.0,Calm,Calm,-,N/A,,Clear,0,2013-09-24 01:53:00
10:53 PM,45.0,43.0,93,30.05,10.0,Calm,Calm,-,N/A,,Clear,0,2013-09-24 02:53:00
11:53 PM,45.0,42.1,90,30.05,10.0,Calm,Calm,-,N/A,,Clear,0,2013-09-24 03:53:00